Flag for Canada Weather past 2 weeks in Saint John, New Brunswick, Canada

41 °F

Passing clouds.

Feels Like: 32 °F
Forecast: 36 / 52 °F
Wind: 20 mph from Northwest

Location: Saint John

Current Time: Oct 10, 2015 at 8:48:14 AM

Latest Report: Oct 10, 2015 at 8:00 AM

Visibility: 15 mi

Pressure: 29.76 "Hg

Humidity: 76%

Dew point: 34 °F

Location of Saint JohnLocation

Historic Weather in Saint John — Graph


Saint John temperature yesterday

Maximum temperature yesterday: 52 °F (at 4:00 PM)
Minimum temperature yesterday: 30 °F (at 4:00 AM)
Average temperature yesterday: 42 °F

Past Weeks' High & Low Weather Summary

High70 °F (Sep 30, 1:00 PM)100% (Sep 25, 8:00 AM)30.55 "Hg (Sep 25, 8:00 AM)
Low28 °F (Sep 27, 5:00 AM)31% (Sep 26, 5:00 PM)29.56 "Hg (Oct 10, 2:00 AM)
Average51 °F83%30.18 "Hg
* Reported Sep 25 7:00 AM — Oct 10 7:00 AM, Saint John, Weather by CustomWeather, © 2015

Note: Actual official high and low records may vary slightly from our data, if they occured in-between our weather recording intervals... More about our weather records


Saint John weather history for previous 24 hours

Time TempWeatherWind HumidityBarometerVisibility
7:00 AM
Sat, Oct 10
41 °FPassing clouds.17 mph81%29.74 "Hg15 mi
6:00 AM43 °FOvercast.16 mph81%29.70 "Hg12 mi
5:00 AM45 °FOvercast.26 mph81%29.64 "Hg8 mi
4:00 AM48 °FDrizzle. Fog.21 mph94%29.61 "Hg6 mi
3:00 AM54 °FDrizzle. Fog.15 mph88%29.57 "Hg4 mi
2:00 AM55 °FLight rain. Fog.8 mph94%29.56 "Hg3 mi
1:00 AM54 °FLight rain. Fog.15 mph100%29.58 "Hg3 mi
12:00 AM52 °FRain. Fog.12 mph94%29.62 "Hg2 mi
11:47 PM
Fri, Oct 9
50 °FLight rain. Fog.15 mph100%29.63 "Hg2 mi
11:00 PM50 °FLight rain. Fog.14 mph94%29.67 "Hg3 mi
10:00 PM48 °FLight rain. Fog.15 mph100%29.71 "Hg3 mi
9:00 PM48 °FLight rain. Fog.18 mph100%29.75 "Hg4 mi
8:00 PM48 °FLight rain. Fog.12 mph100%29.79 "Hg4 mi
7:00 PM48 °FLight rain. More clouds than sun.10 mph100%29.80 "Hg10 mi
6:00 PM50 °FLight rain. More clouds than sun.7 mph94%29.85 "Hg10 mi
5:00 PM50 °FMore clouds than sun.8 mph88%29.90 "Hg15 mi
4:00 PM52 °FMore clouds than sun.7 mph77%29.92 "Hg15 mi
3:00 PM48 °FOvercast.7 mph76%29.95 "Hg15 mi
2:00 PM48 °FOvercast.6 mph76%29.99 "Hg15 mi
1:00 PM50 °FOvercast.6 mph67%30.02 "Hg15 mi
12:00 PM50 °FOvercast.3 mph62%30.05 "Hg15 mi
11:00 AM45 °FOvercast.2 mph81%30.10 "Hg15 mi
10:00 AM41 °FPartly sunny.3 mph87%30.12 "Hg15 mi
9:00 AM37 °FPartly sunny.No wind100%30.13 "Hg15 mi
8:00 AM30 °FPassing clouds.2 mph100%30.11 "Hg15 mi
Weather by CustomWeather, © 2015

See weather overviewHow to use our weather pages